Regional Weather Roundup
Issued by NWS

Home | Current Version | Previous Version | Graphics & Text | Print | Product List | Glossary On
Versions: 1 2 3 4 5 6 7 8 9 10 11 12 13 14 15 16 17 18 19 20 21 22 23 24 25 26 27 28 29 30 31 32 33 34 35 36 37 38 39 40 41 42 43 44 45 46 47 48 49 50
000
ASUS43 KMPX 190310
RWRMN
WEATHER ROUNDUP FOR MINNESOTA
NATIONAL WEATHER SERVICE TWIN CITIES/CHANHASSEN MN
1000 PM CDT FRI AUG 18 2017


NOTE: "FAIR" INDICATES FEW OR NO CLOUDS BELOW 12,000 FEET WITH NO
SIGNIFICANT WEATHER AND/OR OBSTRUCTIONS TO VISIBILITY. N/A MEANS
CURRENT SKY AND/OR WEATHER CONDITIONS ARE NOT AVAILABLE.

MNZ060>063-068>070-190400-
   Twin Cities Metro

CITY           SKY/WX    TMP DP  RH WIND       PRES   REMARKS
TWIN CITIES    MOCLDY    68  59  73 CALM      29.92R
ST PAUL        FAIR      64  63  96 CALM      29.92R
CRYSTAL        FAIR      63  59  87 CALM      29.91R
BLAINE         MOCLDY    64  63  94 CALM      29.91R
LAKEVILLE      FAIR      61  61 100 CALM      29.92F FOG
EDEN PRAIRIE   FAIR      65  61  87 CALM      29.91R
SOUTH ST PAUL  FAIR      65  61  88 W5        29.92R
LAKE ELMO      FAIR      61  59  94 S3        29.93R
$$
MNZ001>005-007-008-013>017-022>024-027-028-190400-
   Northwest Minnesota

CITY           SKY/WX    TMP DP  RH WIND       PRES   REMARKS
BEMIDJI        FAIR      62  56  82 SW6       29.88S
HALLOCK        FAIR      63  55  77 SW3       29.83R
ROSEAU         FAIR      63  55  77 CALM      29.84R
WARROAD        FAIR      63  59  88 CALM      29.84R
THIEF RVR FALL FAIR      63  55  77 S8        29.87R
CROOKSTON      FAIR      61  57  88 S6        29.87R
FOSSTON        FAIR      55  55 100 S6        29.90R
DETROIT LAKES  FAIR      63  61  94 CALM      29.92R
MOORHEAD       FAIR      64  59  82 SE3       29.90R
PARK RAPIDS    FAIR      61  58  90 CALM      29.89S
MAHNOMEN       FAIR      58  56  94 S8        29.89R
$$
MNZ006-009>011-018-025>026-190400-
   North Central Minnesota

CITY           SKY/WX    TMP DP  RH WIND       PRES   REMARKS
BAUDETTE       FAIR      63  57  81 NW6       29.83R
FLAG ISLAND    FAIR      72  55  56 W3        29.81R
INTL FALLS     FAIR      60  56  86 SW6       29.82R
WASKISH        FAIR      66  63  88 S3        29.85R
BIG FORK       FAIR      57  55  94 CALM      29.87R
LONGVILLE      FAIR      55  55 100 CALM      29.89S FOG
GRAND RAPIDS   FAIR      64  58  80 W5        29.89S
CRANE LAKE     FAIR      61  57  88 S3        29.85R
ORR            FAIR      57  55  94 CALM      29.83S
COOK             N/A     57  57 100 CALM      29.86S FOG
WALKER         FAIR      60  56  89 W5        29.88S
$$
MNZ012-019>021-037-190400-
   Northeast Minnesota

CITY           SKY/WX    TMP DP  RH WIND       PRES   REMARKS
DULUTH         FAIR      60  59  96 W5        29.87S
ELY            FAIR      61  59  94 CALM      29.85R
HIBBING        FAIR      57  56  96 SW3       29.86S
EVELETH        FAIR      60  56  87 CALM      29.87S
DULUTH HARBOR  FAIR      64  61  88 SW13      29.86F
TWO HARBORS    LGT RAIN  64  59  82 W3        29.83F
SILVER BAY     FAIR      63  61  94 CALM      29.82S
GRAND MARAIS     N/A     61  60  97 CALM      29.80S
G MARAIS ARPRT FAIR      59  55  88 CALM      29.86R
$$
MNZ029>031-032-039>041-046>048-054>057-064-190400-
   West Central Minnesota

CITY           SKY/WX    TMP DP  RH WIND       PRES   REMARKS
FERGUS FALLS   FAIR      64  63  94 CALM      29.90R
WHEATON        FAIR      63  57  82 CALM      29.94R
MORRIS         FAIR      63  63 100 S3        29.92R
ALEXANDRIA     FAIR      60  58  92 S5        29.94R
ELBOW LAKE     FAIR      61  60  97 CALM      29.92R
WADENA         FAIR      57  57 100 CALM      29.90S
GLENWOOD       FAIR      61  59  94 CALM      29.94S
APPLETON       FAIR      63  61  94 CALM      29.92S
BENSON         FAIR      61  57  88 S5        29.94S
ORTONVILLE     FAIR      63  61  94 MISG      29.93R
MADISON        FAIR      64  64 100 CALM      29.93R
WILLMAR        FAIR      63  61  94 CALM      29.94R
$$
MNZ033>034-036-042>043-049>051-058-059-190400-
   Central Minnesota

CITY           SKY/WX    TMP DP  RH WIND       PRES   REMARKS
ST CLOUD       FAIR      60  60 100 CALM      29.91R
SAUK CENTRE    FAIR      59  58  98 SW3       29.93R
PAYNESVILLE    FAIR      60  60  99 CALM      29.94R
AITKIN         FOG       54  52  94 CALM      29.89S VSB 1/4
PINE RIVER     FAIR      55  54  94 CALM      29.93R
BRAINERD       FOG       57  57 100 S3        29.90S VSB 3/4
STAPLES        FAIR      57  57 100 CALM      29.91R
LONG PRAIRIE   FAIR      59  59 100 S6        29.93R
LITTLE FALLS   FOG       55  54  94 CALM      29.92R VSB 1/2
LITCHFIELD     FAIR      64  63  94 CALM      29.93R
BUFFALO        FAIR      63  59  88 CALM      29.93S
MAPLE LAKE     FAIR      62  61  96 CALM      29.93R FOG
HUTCHINSON     FAIR      64  61  89 CALM      29.94R
$$
MNZ037-044-045-052-053-190400-
   East Central Minnesota

CITY           SKY/WX    TMP DP  RH WIND       PRES   REMARKS
PRINCETON      FAIR      63  61  94 CALM      29.91S
MORA           FAIR      59  57  94 CALM      29.92R FOG
CAMBRIDGE      FAIR      64  63  94 CALM      29.91S
RUSH CITY      MOCLDY    63  61  91 CALM      29.90R
MOOSE LAKE     FAIR      55  54  94 CALM      29.88R
HINCKLEY       FAIR      59  59 100 W3        29.90S
CLOQUET        FAIR      61  55  82 SW6       29.89S
MCGREGOR       MOCLDY    59  55  88 SW3       29.89S
$$
MNZ071>073-080-081-089-090-097-098-190400-
   Southwest Minnesota

CITY           SKY/WX    TMP DP  RH WIND       PRES   REMARKS
MONTEVIDEO     FAIR      61  59  94 NW3       29.93R
GRANITE FALLS    N/A     61  60  98 CALM      29.94R FOG
CANBY          FAIR      63  62  95 CALM      29.95R
MARSHALL       FAIR      59  58  96 SW3       29.93R FOG
REDWOOD FALLS  FAIR      61  58  90 W7        29.92R
OLIVIA         FAIR      59  57  94 CALM      29.92R
PIPESTONE      FAIR      64  61  88 N3        29.95R
WINDOM         FAIR      61  57  88 SE3       29.93S
WORTHINGTON    FAIR      61  59  93 CALM      29.94R
JACKSON        TSTM      59  59 100 CALM      29.90S
TRACY          FAIR      59  59  99 SW3       29.94R
SLAYTON        MOCLDY    60  55  82 N5        29.94R
$$
MNZ065>067-074>077-082>085-091>093-190400-
   South Central Minnesota

CITY           SKY/WX    TMP DP  RH WIND       PRES   REMARKS
MANKATO        FAIR      66  62  87 S7        29.92R
NEW ULM        FAIR      63  61  94 S7        29.91S
ST JAMES       LGT RAIN  61  59  94 S3        29.94R
FAIRMONT       RAIN      60  59  96 S9        29.94F
GLENCOE        MOCLDY    64  64 100 CALM      29.92R
FARIBAULT      FAIR      61  59  94 CALM      29.94R
OWATONNA       FAIR      63  59  88 S5        29.94R
WASECA         FAIR      63  59  88 CALM      29.94R
ALBERT LEA     FAIR      66  63  88 CALM      29.94R
$$
MNZ078>079-086>088-094>096-190400-
   Southeast Minnesota

CITY           SKY/WX    TMP DP  RH WIND       PRES   REMARKS
ROCHESTER      FAIR      59  56  89 SW6       29.95R
RED WING       FAIR      63  59  88 CALM      29.92R
STANTON        MOCLDY    62  60  93 S3        29.92R
DODGE CENTER   FAIR      57  55  94 CALM      29.94S
WINONA         FAIR      61  61 100 NW3       29.93R
AUSTIN         FAIR      59  57  94 CALM      29.94R
PRESTON        FAIR      61  54  79 W3        29.95R
$$
ABBREVIATIONS USED IN REMARKS
   TC - TEMPERATURES IN CELSIUS
  WCI - WIND CHILL INDEX
   HX - HEAT INDEX
  VSB - VISIBILITY
$$



USA.gov is the U.S. government's official web portal to all federal, state and local government web resources and services.